www.pogodaiklimat.ru

Погода и климат >> Архив погоды >> Индонезия >> Гунунгситоли


ПОГОДА в Гунунгситоли

  • Прогноз погоды в Гунунгситоли
  • Монитор погоды в Гунунгситоли

АРХИВ ПОГОДЫ в Гунунгситоли

Время (UTC), дата Ветер
(напр.,м/с)
 
Видим.   Явления Облачность Т
(С)
Тd
(С)
f
(%)
Тe
(С)
Тes
(С)
Комфортность P
(гПа)
Po
(гПа)
Тmin
(С)
Tmax
(С)
R
(мм)
R24
(мм)
S
(см)
12 14.03 З 3 6000 м 6/4 450 м
[Cb cap Ac As Ci fib]
+29.0 +24.7 78 +41 +41 опасность
перегрева
1010.0 1009.0 +32.5
15 14.03 ЮЗ 4 5000 м гроза без осадков 8/4 450 м
[Cb cap Ac As Ci fib]
+28.3 +26.3 89 +43 +43 опасность
перегрева
1011.7 1010.7
18 14.03 штиль 0 5000 м в посл. час гроза {дождь} 9/6 450 м
[Cb cap Ac As Ci fib]
+25.6 +24.6 94 +36 +36 очень
душно
1012.3 1011.3 2
21 14.03 штиль 0 5000 м 8/5 450 м
[Cb cap Ac As Ci fib]
+25.0 +24.6 98 +35 +35 очень
душно
1010.7 1009.6
00 15.03 штиль 0 8000 м 8/4 540 м
[Sc Ac As Ci fib]
+24.0 +23.5 97 +32 +33 очень
душно
1012.2 1011.2 +24.0 2
03 15.03 штиль 0 10 км 4/1 540 м
[Sc Ac As Ci fib]
+29.8 +25.2 76 +43 +57 опасность
перегрева
1013.4 1012.4
06 15.03 СВ 3 10 км 6/3 480 м
[Cu med, cong Ac As Ci fib]
+31.1 +25.4 72 +45 +56 опасность
перегрева
1012.1 1011.1
09 15.03 С 2 7000 м 4/3 480 м
[Cu med, cong As op Ci fib]
+31.4 +25.5 71 +46 +51 опасность
перегрева
1009.5 1008.5
12 15.03 З 3 6000 м 3/1 500 м
[Sc As trans Ci fib]
+27.9 +24.4 81 +39 +39 очень
душно
1010.0 1009.0 +31.5
15 15.03 В 2 6000 м гроза без осадков 5/3 450 м
[Cb cap Ac As Ci fib]
+26.9 +24.1 85 +37 +37 очень
душно
1012.1 1011.1
18 15.03 штиль 0 6000 м в посл. час гроза 5/4 450 м
[Sc Ac As Ci fib]
+25.8 +24.6 93 +36 +36 очень
душно
1012.2 1011.2
21 15.03 штиль 0 5000 м 8/4 450 м
[Cb cap Ac As Ci fib]
+24.8 +24.4 98 +35 +35 очень
душно
1010.4 1009.4
00 16.03 штиль 0 7000 м 5/3 480 м
[Cu med, cong Ac As Ci fib]
+23.8 +23.1 96 +32 +32 очень
душно
1011.8 1010.7 +23.8
03 16.03 С 3 9000 м 6/4 480 м
[Cu med, cong Ac As Ci fib]
+29.8 +25.4 77 +44 +50 опасность
перегрева
1013.1 1012.1
06 16.03 С 3 10 км 5/3 480 м
[Cu med, cong Ac As Ci fib]
+30.4 +25.9 77 +45 +57 опасность
перегрева
1010.6 1009.6
09 16.03 С 3 10 км 4/1 500 м
[Sc Ac As Ci fib]
+30.8 +25.1 72 +45 +50 опасность
перегрева
1008.3 1007.3
12 16.03 штиль 0 6000 м 4/1 500 м
[Sc Ac As Ci fib]
+29.0 +26.7 87 +45 +45 опасность
перегрева
1009.7 1008.7 +31.3
15 16.03 ЮЗ 4 6000 м 5/3 500 м
[Sc Ac As Ci fib]
+28.2 +25.3 84 +41 +41 опасность
перегрева
1012.0 1011.0
18 16.03 штиль 0 6000 м 6/3 500 м
[Sc Ac As Ci fib]
+26.4 +25.2 93 +38 +38 очень
душно
1012.0 1011.0
21 16.03 штиль 0 6000 м 8/3 500 м
[Sc Ac As Ci fib]
+25.2 +24.7 97 +35 +35 очень
душно
1010.2 1009.2
00 17.03 штиль 0 7000 м 6/3 480 м
[Cu Sc Ac As Ci fib]
+24.2 +24.1 99 +33 +33 очень
душно
1010.4 1011.2 +24.0
03 17.03 С 3 10 км 5/3 480 м
[Cu Sc Ac As Ci fib]
+29.9 +25.9 79 +45 +52 опасность
перегрева
1012.1 1011.3
06 17.03 СВ 3 10 км 5/3 480 м
[Cu Sc Ac As Ci fib]
+30.9 +26.1 76 +47 +57 опасность
перегрева
1010.0 1009.2
09 17.03 В 2 10 км 4/3 480 м
[Cu med, cong Ac As Ci fib]
+32.1 +24.1 63 +44 +49 опасность
перегрева
1007.8 1006.7
12 17.03 штиль 0 7000 м 5/3 500 м
[Sc Ac As Ci fib]
+29.2 +26.3 84 +44 +44 опасность
перегрева
1009.3 1008.3 +32.6
15 17.03 штиль 0 6000 м 6/3 500 м
[Sc Ac As Ci fib]
+27.2 +25.4 90 +40 +40 очень
душно
1012.4 1011.4
18 17.03 штиль 0 5000 м гроза, ливневой дождь 9/5 450 м
[Cb cap Ac As Ci fib]
+24.3 +22.7 91 +32 +32 очень
душно
1011.7 1010.7 1
21 17.03 штиль 0 5000 м мгла {гроза, дождь} 6/3 500 м
[Sc Ac As Ci fib]
+23.4 +22.7 96 +33 +33 очень
душно
1010.1 1009.0 0.0
00 18.03 штиль 0 6000 м {гроза, дождь} 8/3 480 м
[Cu med, cong Ac As Ci fib]
+23.3 +22.6 96 +32 +32 очень
душно
1010.6 1009.6 +23.3 0.0
03 18.03 В 2 6000 м 8/3 480 м
[Cu med, cong Ac As Ci fib]
+30.4 +24.1 69 +42 +49 опасность
перегрева
1012.1 1011.1
06 18.03 В 4 9000 м 6/3 480 м
[Cu med, cong Ac As Ci fib]
+31.6 +25.7 71 +47 +54 опасность
перегрева
1010.0 1009.0
09 18.03 штиль 0 9000 м 5/3 480 м
[Cu Sc Ac As Ci fib]
+33.0 +22.0 52 +41 +48 опасность
перегрева
1007.5 1006.7
12 18.03 ЮЗ 4 7000 м 6/3 480 м
[Cu Sc Ac As Ci fib]
+28.1 +25.3 85 +41 +41 опасность
перегрева
1009.1 1008.3 +33.3
15 18.03 штиль 0 6000 м 8/4 450 м
[Cb cap Ac As Ci fib]
+26.6 +25.4 93 +39 +39 очень
душно
1012.2 1011.3
18 18.03 штиль 0 6000 м {гроза} 8/4 450 м
[Cb cap Ac As Ci fib]
+25.6 +24.6 94 +36 +36 очень
душно
1010.9 1009.8
21 18.03 штиль 0 6000 м 8/4 450 м
[Cb cap Ac As Ci fib]
+24.6 +24.1 97 +34 +34 очень
душно
1009.8 1008.8
00 19.03 Ю 2 5000 м мгла 8/4 450 м
[Cb cap Ac As Ci fib]
+24.1 +23.6 97 +33 +33 очень
душно
1010.7 1009.7 +23.5
03 19.03 СВ 2 8000 м 8/4 480 м
[Cu med, cong Ac As Ci fib]
+29.8 +24.6 74 +42 +48 опасность
перегрева
1012.0 1011.0
06 19.03 СВ 2 8000 м 8/4 480 м
[Cu med, cong Ac As Ci fib]
+30.1 +24.8 73 +43 +52 опасность
перегрева
1009.8 1008.8
09 19.03 ЮЗ 3 8000 м слаб. дождь {гроза} 9/4 450 м
[Cb cap Ac As Ci fib]
+27.0 +23.9 83 +37 +40 очень
душно
1006.8 1005.8 0.1
12 19.03 штиль 0 6000 м {гроза, дождь} 6/4 480 м
[Cu Sc Ac As Ci fib]
+27.3 +23.5 80 +37 +37 очень
душно
1008.0 1007.0 +30.5 0.0
15 19.03 Ю 2 6000 м 8/4 450 м
[Cb cap Ac As Ci fib]
+24.7 +23.6 94 +34 +34 очень
душно
1011.0 1010.0
18 19.03 штиль 0 6000 м зарница 8/4 450 м
[Cb cap Ac As Ci fib]
+23.9 +23.7 99 +32 +32 очень
душно
1011.8 1010.8
21 19.03 штиль 0 6000 м зарница 8/4 450 м
[Cb cap Ac As Ci fib]
+24.2 +24.0 99 +33 +33 очень
душно
1009.4 1008.6
00 20.03 штиль 0 5000 м мгла 5/1 480 м
[Cu med, cong Ac As Ci fib]
+24.2 +23.7 97 +33 +33 очень
душно
1009.9 1008.9 +23.2 0.1
03 20.03 С 3 8000 м 5/3 450 м
[Cb cap Ac As Ci fib]
+29.5 +25.5 79 +43 +51 опасность
перегрева
1011.9 1010.9
06 20.03 СВ 4 9000 м 5/3 450 м
[Cb cap Ac As Ci fib]
+31.2 +25.2 70 +45 +55 опасность
перегрева
1009.9 1008.9
09 20.03 штиль 0 8000 м 8/4 450 м
[Cb cap Ac As Ci fib]
+28.0 +24.2 80 +39 +44 очень
душно
1007.5 1006.5
12 20.03 Ю 2 6000 м {гроза} 8/4 500 м
[Sc Ac As Ci fib]
+28.4 +25.1 82 +41 +41 опасность
перегрева
1008.1 1007.1
15 20.03 штиль 0 6000 м 5/3 500 м
[Sc Ac As Ci fib]
+26.6 +25.5 94 +39 +39 очень
душно
1011.4 1010.4
18 20.03 штиль 0 5000 м гроза без осадков 6/3 450 м
[Cb cap Ac As Ci fib]
+26.3 +24.2 88 +37 +37 очень
душно
1011.1 1010.0
21 20.03 штиль 0 5000 м гроза без осадков 8/4 450 м
[Cb cap Ac As Ci fib]
+25.5 +24.5 94 +36 +36 очень
душно
1008.9 1007.9
00 21.03 штиль 0 7000 м {гроза} 9/4 450 м
[Cb cap Ac As Ci fib]
+25.0 +24.3 96 +35 +35 очень
душно
1010.0 1009.0 +24.2
03 21.03 штиль 0 6000 м гроза, ливневой дождь 10/5 450 м
[Cb cap Ac As]
+26.2 +25.3 95 +38 +41 очень
душно
1012.8 1011.8 0.0
06 21.03 штиль 0 6000 м слаб. ливневой дождь, в посл. час гроза 10/5 450 м
[Cb cap As op]
+26.0 +24.8 93 +37 +40 очень
душно
1011.8 1010.8 46
09 21.03 штиль 0 8000 м в посл. час дождь 9/3 450 м
[Cb cap Ac As Ci fib]
+29.2 +26.3 84 +44 +49 опасность
перегрева
1008.9 1007.9 0.0

 

Местоположение метеостанции Гунунгситоли (Индонезия): широта 1.50 долгота 97.63 высота над уровнем моря 6 м.

В архиве по умолчанию представлена погода в Гунунгситоли за последнюю неделю. Архивные данные за месяц целиком и за предыдущие месяцы, начиная с января 2011 года, Вы можете получить, выбрав интересующий диапазон дат из раскрывающегося списка и нажав кнопку "Ввод!".


*Определитесь, кто Вы:
робот инопланетянин человек

Внимание! Время в таблицах - всемирное. Для получения местного времени необходимо прибавить поправку, которая равна 7 ч.

Смотрите также архив погоды в соседних городах и на ближайших метеорологических станциях:

Погода в Сиболге (Индонезия) (139 км)
Погода в Медан Полония (Индонезия) (258 км)
Погода в Белаване (Индонезия) (282 км)
Погода в Меулабохе (Индонезия) (349 км)
Погода в Паданге (Индонезия) (402 км)
Погода в Лхоксёмаве (Индонезия) (418 км)
Погода в Пеканбару (Индонезия) (440 км)
Погода в Ситаване (Малайзия) (456 км)
Погода в Куала-Лумпуре (Малайзия) (471 км)
Погода в Куала-Лумпур аэропорту (Малайзия) (472 км)

Пояснения к столбцам:

Ветер - указаны скорость ветра в м/с - средняя за 10 мин, порывы в срок и между сроками (в фигурных скобках) и направление, откуда дует ветер: С - северный, СВ - северо-восточный, В - восточный, ЮВ - юго-восточный, Ю - южный, ЮЗ - юго-западный, З - западный, СЗ - северо-западный.
Видимость - горизонтальная дальность видимости в метрах или километрах. При видимости от 1 до 10 км при отсутствии осадков обычно наблюдается дымка, при ухудшении видимости до 1 км и менее - туман. В сухую погоду видимость может ухудшаться дымом, пылью или мглою.
Явления - указаны атмосферные явления, наблюдавшиеся в срок или в последний час перед сроком; фигурными скобками обозначены явления, наблюдавшиеся между сроками (за 1-3 часа до срока); квадратными скобками обозначены град или гололедные отложения с указанием их диаметра в мм.
Облачность - указаны через наклонную черту общая и нижняя облачность в баллах и высота нижней границы облаков в метрах; квадратными скобками обозначены формы облаков: Ci - перистые, Cs - перисто-слоистые, Cc - перисто-кучевые, Ac - высококучевые, As - высокослоистые, Sc - слоисто-кучевые, Ns - слоисто-дождевые, Cu - кучевые, Cb - кучево-дождевые. Подробнее классификацию облаков см. в Атласе облаков (PDF).
T - Температура воздуха - температура, измеренная на высоте 2 м над землей.
Td - Температура точки росы - температура, при понижении до которой содержащийся в воздухе водяной пар достигнет насыщения.
f - Относительная влажность воздуха - влажноcть воздуха, измеренная на высоте 2 м над землей.
Te - Эффективная температура - температура, которую ощущает одетый по сезону человек в тени. Характеристика душности погоды. При расчете учитывается влияние влажности воздуха и скорости ветра на теплоощущения человека.
Tes - Эффективная температура на солнце - температура, которую ощущает человек, с поправкой на солнечный нагрев. Характеристика знойности погоды. Зависит от высоты солнца над горизонтом, облачности и скорости ветра. Ночью, в пасмурную погоду, а также при ветре 12 м/с и более поправка равна нулю.
P - Атмосферное давление - приведенное к уровню моря атмосферное давление.
Po - Атмосферное давление - измеренное на уровне метеостанции атмосферное давление.
Tmin - Минимальная температура - минимум температуры воздуха на высоте 2 м над землей.
Tmax - Максимальная температура - максимум температуры воздуха на высоте 2 м над землей.
R - Количество осадков - Количество выпавших осадков за период времени, мм. При наведении курсора мыши на число - период времени, за который выпало указанное количество осадков.
R24 - Количество осадков - Количество выпавших осадков за 24 часа, мм.
S - Снежный покров - Высота снежного покрова, см. При наведении курсора мыши на число - состояние снежного покрова и степень покрытия местности в баллах.